ZKJEE NZNS-NZWN

Flight info

Callsign ZKJEE
Flight time 0h 30m
Altitude 9000
Route LUSRA H267 SIMZI
Aircraft DHC6/L-SDFGR/G

Departure

Time 2026-04-18 03:51
Airport Nelson Airport (NZNS)

Arrival

Time 2026-04-18 04:21
Airport Wellington International Airport (NZWN)
Time Latitude Longitude Altitude Speed Heading
2026-04-18 03:46 -41.30080 173.21965 15 ft 39 kts 41°
2026-04-18 03:50 -41.30025 173.22028 15 ft 57 kts 41°
2026-04-18 03:50 -41.29567 173.22556 131 ft 97 kts 41°
2026-04-18 03:51 -41.29144 173.23043 683 ft 81 kts 31°
2026-04-18 03:51 -41.28615 173.23402 1028 ft 88 kts 25°
2026-04-18 03:51 -41.28062 173.23785 1407 ft 90 kts 25°
2026-04-18 03:51 -41.27498 173.24188 1734 ft 99 kts 25°
2026-04-18 03:52 -41.26912 173.24553 2121 ft 105 kts 29°
2026-04-18 03:52 -41.26193 173.25054 2403 ft 114 kts 20°
2026-04-18 03:52 -41.25552 173.25672 2786 ft 115 kts 25°
2026-04-18 03:52 -41.24916 173.26323 3141 ft 115 kts 25°
2026-04-18 03:53 -41.24489 173.26799 3378 ft 121 kts 33°
2026-04-18 03:53 -41.24257 173.27942 3677 ft 141 kts 97°
2026-04-18 03:53 -41.24691 173.29095 4042 ft 141 kts 123°
2026-04-18 03:53 -41.25219 173.30224 4392 ft 149 kts 124°
2026-04-18 03:54 -41.25787 173.31421 4764 ft 155 kts 124°
2026-04-18 03:54 -41.26376 173.32653 5132 ft 159 kts 124°
2026-04-18 03:54 -41.26990 173.33877 5483 ft 163 kts 126°
2026-04-18 03:54 -41.27656 173.35156 5848 ft 166 kts 126°
2026-04-18 03:55 -41.28309 173.36410 6199 ft 169 kts 126°
2026-04-18 03:55 -41.28968 173.37701 6551 ft 170 kts 124°
2026-04-18 03:55 -41.29611 173.39040 6911 ft 172 kts 120°
2026-04-18 03:55 -41.30190 173.40422 7264 ft 173 kts 115°
2026-04-18 03:56 -41.30664 173.41907 7622 ft 172 kts 105°
2026-04-18 03:56 -41.30921 173.43434 7973 ft 170 kts 91°
2026-04-18 03:56 -41.31013 173.44987 8323 ft 168 kts 82°
2026-04-18 03:56 -41.31023 173.46538 8678 ft 167 kts 79°
2026-04-18 03:57 -41.31198 173.49637 9373 ft 170 kts 89°
2026-04-18 03:57 -41.31351 173.51196 9723 ft 169 kts 87°
2026-04-18 03:57 -41.31475 173.52793 9928 ft 179 kts 85°
2026-04-18 03:58 -41.31561 173.54510 10003 ft 191 kts 83°
2026-04-18 03:58 -41.31611 173.56279 10005 ft 197 kts 82°
2026-04-18 03:58 -41.31625 173.58124 10006 ft 201 kts 81°
2026-04-18 03:58 -41.31610 173.60022 10002 ft 204 kts 80°
2026-04-18 03:59 -41.31590 173.61909 10004 ft 206 kts 80°
2026-04-18 03:59 -41.31569 173.63824 10000 ft 208 kts 79°
2026-04-18 03:59 -41.31547 173.65720 9999 ft 208 kts 79°
2026-04-18 03:59 -41.31513 173.67663 9998 ft 209 kts 78°
2026-04-18 04:00 -41.31572 173.69621 10003 ft 214 kts 87°
2026-04-18 04:00 -41.31755 173.71576 10002 ft 215 kts 88°
2026-04-18 04:00 -41.31899 173.73541 10001 ft 213 kts 85°
2026-04-18 04:00 -41.31969 173.75498 10003 ft 211 kts 82°
2026-04-18 04:01 -41.31977 173.77443 10001 ft 210 kts 79°
2026-04-18 04:01 -41.31946 173.79406 9999 ft 210 kts 78°
2026-04-18 04:01 -41.31904 173.81341 9999 ft 210 kts 78°
2026-04-18 04:01 -41.31856 173.83261 10002 ft 210 kts 78°
2026-04-18 04:02 -41.31894 173.85217 10000 ft 215 kts 87°
2026-04-18 04:02 -41.32072 173.87200 10002 ft 215 kts 87°
2026-04-18 04:02 -41.32186 173.89159 10003 ft 213 kts 83°
2026-04-18 04:02 -41.32188 173.91139 10028 ft 207 kts 86°
2026-04-18 04:03 -41.32027 173.93002 9993 ft 206 kts 70°
2026-04-18 04:03 -41.32050 173.94959 9997 ft 218 kts 90°
2026-04-18 04:03 -41.32451 173.96958 10003 ft 223 kts 100°
2026-04-18 04:03 -41.32953 173.98878 10001 ft 224 kts 103°
2026-04-18 04:04 -41.33498 174.00847 10000 ft 225 kts 103°
2026-04-18 04:04 -41.34033 174.02803 10000 ft 225 kts 103°
2026-04-18 04:04 -41.34561 174.04736 10000 ft 225 kts 103°
2026-04-18 04:04 -41.35093 174.06694 10000 ft 225 kts 103°
2026-04-18 04:05 -41.35608 174.08643 10000 ft 225 kts 102°
2026-04-18 04:05 -41.36146 174.10641 10000 ft 225 kts 103°
2026-04-18 04:05 -41.36662 174.12592 10000 ft 225 kts 102°
2026-04-18 04:05 -41.37190 174.14552 10000 ft 225 kts 103°
2026-04-18 04:06 -41.37710 174.16526 10000 ft 225 kts 102°
2026-04-18 04:06 -41.38215 174.18463 10000 ft 225 kts 102°
2026-04-18 04:06 -41.38732 174.20437 10000 ft 225 kts 102°
2026-04-18 04:06 -41.39261 174.22409 10000 ft 225 kts 102°
2026-04-18 04:07 -41.39778 174.24380 10000 ft 225 kts 102°
2026-04-18 04:07 -41.40304 174.26355 10000 ft 226 kts 102°
2026-04-18 04:07 -41.40811 174.28284 10000 ft 225 kts 102°
2026-04-18 04:07 -41.41343 174.30283 9998 ft 226 kts 103°
2026-04-18 04:08 -41.41920 174.32239 9983 ft 227 kts 107°
2026-04-18 04:08 -41.42532 174.34151 9978 ft 226 kts 107°
2026-04-18 04:08 -41.43137 174.36085 9985 ft 225 kts 106°
2026-04-18 04:08 -41.43713 174.38005 10000 ft 224 kts 105°
2026-04-18 04:09 -41.44234 174.39983 10004 ft 222 kts 99°
2026-04-18 04:09 -41.44652 174.41942 10006 ft 223 kts 98°
2026-04-18 04:09 -41.45083 174.43954 10003 ft 224 kts 99°
2026-04-18 04:09 -41.45540 174.45948 10001 ft 226 kts 100°
2026-04-18 04:10 -41.46021 174.47920 10002 ft 226 kts 101°
2026-04-18 04:10 -41.46528 174.49915 10003 ft 226 kts 102°
2026-04-18 04:10 -41.47047 174.51900 10003 ft 227 kts 103°
2026-04-18 04:10 -41.47571 174.53888 10003 ft 227 kts 102°
2026-04-18 04:11 -41.48087 174.55842 10006 ft 227 kts 103°
2026-04-18 04:11 -41.48610 174.57848 10002 ft 227 kts 102°
2026-04-18 04:11 -41.49132 174.59837 9952 ft 225 kts 101°
2026-04-18 04:11 -41.49327 174.61785 9694 ft 203 kts 78°
2026-04-18 04:12 -41.49278 174.63616 9447 ft 193 kts 74°
2026-04-18 04:12 -41.49277 174.65388 9193 ft 190 kts 79°
2026-04-18 04:12 -41.49372 174.67136 8940 ft 187 kts 81°
2026-04-18 04:12 -41.49431 174.68830 8689 ft 181 kts 78°
2026-04-18 04:13 -41.49487 174.70492 8439 ft 180 kts 79°
2026-04-18 04:13 -41.49559 174.72150 8187 ft 178 kts 79°
2026-04-18 04:13 -41.49623 174.73800 7934 ft 178 kts 80°
2026-04-18 04:13 -41.49694 174.75463 7682 ft 177 kts 80°
2026-04-18 04:14 -41.49754 174.77080 7435 ft 177 kts 79°
2026-04-18 04:14 -41.49793 174.78706 7181 ft 171 kts 72°
2026-04-18 04:14 -41.49345 174.79953 6917 ft 134 kts 22°
2026-04-18 04:14 -41.48563 174.80251 6684 ft 110 kts 349°
2026-04-18 04:15 -41.47813 174.80209 6438 ft 108 kts 344°
2026-04-18 04:15 -41.47067 174.80141 6191 ft 109 kts 344°
2026-04-18 04:15 -41.46308 174.80085 5940 ft 109 kts 345°
2026-04-18 04:15 -41.45543 174.80046 5689 ft 110 kts 346°
2026-04-18 04:16 -41.44779 174.80023 5439 ft 110 kts 347°
2026-04-18 04:16 -41.44015 174.80019 5190 ft 110 kts 347°
2026-04-18 04:16 -41.43249 174.80021 4940 ft 110 kts 348°
2026-04-18 04:16 -41.42478 174.80039 4689 ft 110 kts 348°
2026-04-18 04:17 -41.41723 174.80058 4445 ft 110 kts 351°
2026-04-18 04:17 -41.40959 174.80083 4193 ft 109 kts 351°
2026-04-18 04:17 -41.40208 174.80118 3943 ft 108 kts 351°
2026-04-18 04:17 -41.39467 174.80160 3709 ft 103 kts 351°
2026-04-18 04:18 -41.38796 174.80291 3473 ft 95 kts 359°
2026-04-18 04:18 -41.38175 174.80492 3215 ft 88 kts 356°
2026-04-18 04:18 -41.37643 174.80605 3008 ft 76 kts 352°
2026-04-18 04:18 -41.37217 174.80800 2951 ft 52 kts 358°
2026-04-18 04:19 -41.36926 174.81010 2773 ft 48 kts 355°
2026-04-18 04:19 -41.36614 174.81186 2537 ft 50 kts 352°
2026-04-18 04:19 -41.36285 174.81331 2308 ft 49 kts 350°
2026-04-18 04:19 -41.35960 174.81429 2096 ft 51 kts 11°
2026-04-18 04:20 -41.35603 174.81072 1729 ft 67 kts 320°
2026-04-18 04:20 -41.35367 174.80737 1582 ft 40 kts 336°
2026-04-18 04:20 -41.35076 174.80651 1190 ft 59 kts 310°
2026-04-18 04:20 -41.34600 174.80601 754 ft 67 kts 358°
2026-04-18 04:21 -41.34143 174.80569 359 ft 66 kts
2026-04-18 04:21 -41.33716 174.80610 128 ft 51 kts
2026-04-18 04:21 -41.33514 174.80622 47 ft 35 kts
2026-04-18 04:21 -41.33297 174.80636 46 ft 15 kts
2026-04-18 04:22 -41.33213 174.80641 46 ft 10 kts
2026-04-18 04:22 -41.33170 174.80644 46 ft 8 kts
2026-04-18 04:22 -41.33122 174.80647 46 ft 7 kts
2026-04-18 04:22 -41.33065 174.80650 46 ft 9 kts
2026-04-18 04:23 -41.32994 174.80655 46 ft 11 kts
2026-04-18 04:23 -41.32906 174.80660 46 ft 14 kts
2026-04-18 04:23 -41.32797 174.80667 46 ft 17 kts
2026-04-18 04:23 -41.32697 174.80653 46 ft 11 kts 312°
2026-04-18 04:24 -41.32682 174.80562 46 ft 10 kts 268°
2026-04-18 04:24 -41.32674 174.80539 46 ft 0 kts 333°